Time,TemperatureF,DewpointF,PressureIn,WindDirection,WindDirectionDegrees,WindSpeedMPH,WindSpeedGustMPH,Humidity,HourlyPrecipIn,Conditions,Clouds,dailyrainin,SoftwareType,DateUTC
2013-05-17 00:04:00,55.0,41.8,29.87,WSW,248,5.0,8.0,61,0.00,,,0.00,Weather View 32 v70,2013-05-17 04:04:00,
2013-05-17 00:10:00,55.0,41.8,29.87,WNW,292,3.0,11.0,61,0.00,,,0.00,Weather View 32 v70,2013-05-17 04:10:00,
2013-05-17 00:14:00,55.0,41.3,29.87,West,270,6.0,11.0,60,0.00,,,0.00,Weather View 32 v70,2013-05-17 04:14:00,
2013-05-17 00:19:00,55.0,41.3,29.87,WSW,248,5.0,11.0,60,0.00,,,0.00,Weather View 32 v70,2013-05-17 04:19:00,
2013-05-17 00:29:00,55.0,41.3,29.87,WSW,248,4.0,12.0,60,0.00,,,0.00,Weather View 32 v70,2013-05-17 04:29:00,
2013-05-17 00:39:00,55.0,41.3,29.87,West,270,3.0,12.0,60,0.00,,,0.00,Weather View 32 v70,2013-05-17 04:39:00,
2013-05-17 00:44:00,55.0,41.3,29.87,WSW,248,4.0,12.0,60,0.00,,,0.00,Weather View 32 v70,2013-05-17 04:44:00,
2013-05-17 00:50:00,55.0,41.8,29.87,WNW,292,5.0,12.0,61,0.00,,,0.00,Weather View 32 v70,2013-05-17 04:50:00,
2013-05-17 00:59:00,55.0,41.8,29.87,West,270,1.0,12.0,61,0.00,,,0.00,Weather View 32 v70,2013-05-17 04:59:00,
2013-05-17 01:09:00,54.0,41.2,29.87,WNW,292,4.0,12.0,62,0.00,,,0.00,Weather View 32 v70,2013-05-17 05:09:00,
2013-05-17 01:19:00,54.0,41.2,29.87,SSW,202,3.0,12.0,62,0.00,,,0.00,Weather View 32 v70,2013-05-17 05:19:00,
2013-05-17 01:29:00,54.0,41.7,29.88,WSW,248,2.0,9.0,63,0.00,,,0.00,Weather View 32 v70,2013-05-17 05:29:00,
2013-05-17 01:39:00,53.0,41.1,29.88,South,180,1.0,8.0,64,0.00,,,0.00,Weather View 32 v70,2013-05-17 05:39:00,
2013-05-17 01:44:00,53.0,41.1,29.88,WNW,292,2.0,8.0,64,0.00,,,0.00,Weather View 32 v70,2013-05-17 05:44:00,
2013-05-17 01:54:00,52.0,40.6,29.88,South,180,5.0,8.0,65,0.00,,,0.00,Weather View 32 v70,2013-05-17 05:54:00,
2013-05-17 02:00:00,52.0,41.0,29.88,WSW,248,1.0,8.0,66,0.00,,,0.00,Weather View 32 v70,2013-05-17 06:00:00,
2013-05-17 02:09:00,52.0,41.0,29.88,West,270,2.0,7.0,66,0.00,,,0.00,Weather View 32 v70,2013-05-17 06:09:00,
2013-05-17 02:19:00,52.0,41.4,29.88,West,270,1.0,7.0,67,0.00,,,0.00,Weather View 32 v70,2013-05-17 06:19:00,
2013-05-17 02:29:00,51.0,40.8,29.89,South,180,2.0,7.0,68,0.00,,,0.00,Weather View 32 v70,2013-05-17 06:29:00,
2013-05-17 02:39:00,51.0,40.8,29.88,West,270,4.0,8.0,68,0.00,,,0.00,Weather View 32 v70,2013-05-17 06:39:00,
2013-05-17 02:50:00,51.0,40.8,29.89,SSW,202,1.0,8.0,68,0.00,,,0.00,Weather View 32 v70,2013-05-17 06:50:00,
2013-05-17 02:59:00,51.0,40.4,29.89,West,270,5.0,8.0,67,0.00,,,0.00,Weather View 32 v70,2013-05-17 06:59:00,
2013-05-17 03:10:00,51.0,40.0,29.89,SSW,202,2.0,12.0,66,0.00,,,0.00,Weather View 32 v70,2013-05-17 07:10:00,
2013-05-17 03:19:00,50.0,39.5,29.89,SE,135,3.0,12.0,67,0.00,,,0.00,Weather View 32 v70,2013-05-17 07:19:00,
2013-05-17 03:29:00,50.0,39.8,29.89,SW,225,3.0,12.0,68,0.00,,,0.00,Weather View 32 v70,2013-05-17 07:29:00,
2013-05-17 03:39:00,50.0,39.8,29.90,WNW,292,6.0,14.0,68,0.00,,,0.00,Weather View 32 v70,2013-05-17 07:39:00,
2013-05-17 03:44:00,49.0,38.9,29.90,West,270,4.0,14.0,68,0.00,,,0.00,Weather View 32 v70,2013-05-17 07:44:00,
2013-05-17 03:54:00,49.0,38.5,29.89,WSW,248,8.0,16.0,67,0.00,,,0.00,Weather View 32 v70,2013-05-17 07:54:00,
2013-05-17 04:00:00,49.0,38.1,29.90,SSW,202,8.0,16.0,66,0.00,,,0.00,Weather View 32 v70,2013-05-17 08:00:00,
2013-05-17 04:09:00,49.0,38.1,29.91,SSW,202,5.0,17.0,66,0.00,,,0.00,Weather View 32 v70,2013-05-17 08:09:00,
2013-05-17 04:20:00,49.0,38.5,29.91,WNW,292,5.0,19.0,67,0.00,,,0.00,Weather View 32 v70,2013-05-17 08:20:00,
2013-05-17 04:29:00,48.0,37.9,29.92,West,270,4.0,19.0,68,0.00,,,0.00,Weather View 32 v70,2013-05-17 08:29:00,
2013-05-17 04:40:00,48.0,37.9,29.92,SE,135,5.0,19.0,68,0.00,,,0.00,Weather View 32 v70,2013-05-17 08:40:00,
2013-05-17 04:49:00,48.0,38.3,29.92,WSW,248,4.0,19.0,69,0.00,,,0.00,Weather View 32 v70,2013-05-17 08:49:00,
2013-05-17 04:54:00,48.0,38.3,29.92,SW,225,3.0,19.0,69,0.00,,,0.00,Weather View 32 v70,2013-05-17 08:54:00,
2013-05-17 05:00:00,48.0,38.3,29.93,WSW,248,4.0,19.0,69,0.00,,,0.00,Weather View 32 v70,2013-05-17 09:00:00,
2013-05-17 05:09:00,48.0,38.3,29.93,WNW,292,4.0,20.0,69,0.00,,,0.00,Weather View 32 v70,2013-05-17 09:09:00,
2013-05-17 05:20:00,48.0,38.7,29.93,SSW,202,6.0,20.0,70,0.00,,,0.00,Weather View 32 v70,2013-05-17 09:20:00,
2013-05-17 05:29:00,48.0,38.7,29.93,SSW,202,4.0,20.0,70,0.00,,,0.00,Weather View 32 v70,2013-05-17 09:29:00,
2013-05-17 05:39:00,48.0,39.0,29.95,South,180,3.0,20.0,71,0.00,,,0.00,Weather View 32 v70,2013-05-17 09:39:00,
2013-05-17 05:44:00,47.0,38.1,29.94,West,270,5.0,20.0,71,0.00,,,0.00,Weather View 32 v70,2013-05-17 09:44:00,
2013-05-17 05:54:00,47.0,38.4,29.94,West,270,2.0,20.0,72,0.00,,,0.00,Weather View 32 v70,2013-05-17 09:54:00,
2013-05-17 06:00:00,48.0,39.0,29.94,WSW,248,4.0,20.0,71,0.00,,,0.00,Weather View 32 v70,2013-05-17 10:00:00,
2013-05-17 06:09:00,48.0,39.0,29.95,SSE,158,4.0,14.0,71,0.00,,,0.00,Weather View 32 v70,2013-05-17 10:09:00,
2013-05-17 06:19:00,48.0,39.0,29.95,West,270,8.0,14.0,71,0.00,,,0.00,Weather View 32 v70,2013-05-17 10:19:00,
2013-05-17 06:30:00,48.0,38.7,29.96,WSW,248,3.0,14.0,70,0.00,,,0.00,Weather View 32 v70,2013-05-17 10:30:00,
2013-05-17 06:34:00,48.0,38.7,29.97,WSW,248,12.0,12.0,70,0.00,,,0.00,Weather View 32 v70,2013-05-17 10:34:00,
2013-05-17 06:44:00,48.0,38.7,29.97,West,270,3.0,18.0,70,0.00,,,0.00,Weather View 32 v70,2013-05-17 10:44:00,
2013-05-17 06:49:00,49.0,40.0,29.97,SW,225,4.0,18.0,71,0.00,,,0.00,Weather View 32 v70,2013-05-17 10:49:00,
2013-05-17 06:59:00,49.0,39.6,29.98,WNW,292,3.0,18.0,70,0.00,,,0.00,Weather View 32 v70,2013-05-17 10:59:00,
2013-05-17 07:09:00,49.0,39.6,29.99,South,180,3.0,18.0,70,0.00,,,0.00,Weather View 32 v70,2013-05-17 11:09:00,
2013-05-17 07:14:00,49.0,39.6,29.99,SE,135,10.0,18.0,70,0.00,,,0.00,Weather View 32 v70,2013-05-17 11:14:00,
2013-05-17 07:24:00,49.0,39.6,29.99,SSW,202,4.0,18.0,70,0.00,,,0.00,Weather View 32 v70,2013-05-17 11:24:00,
2013-05-17 07:35:00,50.0,40.2,30.00,WSW,248,3.0,21.0,69,0.00,,,0.00,Weather View 32 v70,2013-05-17 11:35:00,
2013-05-17 07:44:00,51.0,40.4,30.00,SW,225,2.0,21.0,67,0.00,,,0.00,Weather View 32 v70,2013-05-17 11:44:00,
2013-05-17 07:54:00,52.0,41.4,30.01,SSE,158,4.0,21.0,67,0.00,,,0.00,Weather View 32 v70,2013-05-17 11:54:00,
2013-05-17 08:04:00,52.0,41.0,30.01,South,180,1.0,21.0,66,0.00,,,0.00,Weather View 32 v70,2013-05-17 12:04:00,
2013-05-17 08:15:00,53.0,41.5,30.01,WSW,248,1.0,21.0,65,0.00,,,0.00,Weather View 32 v70,2013-05-17 12:15:00,
2013-05-17 08:24:00,54.0,42.5,30.02,West,270,4.0,21.0,65,0.00,,,0.00,Weather View 32 v70,2013-05-17 12:24:00,
2013-05-17 08:34:00,54.0,42.5,30.02,WSW,248,3.0,13.0,65,0.00,,,0.00,Weather View 32 v70,2013-05-17 12:34:00,
2013-05-17 08:39:00,54.0,42.5,30.02,WSW,248,2.0,13.0,65,0.00,,,0.00,Weather View 32 v70,2013-05-17 12:39:00,
2013-05-17 08:44:00,54.0,42.1,30.02,South,180,3.0,14.0,64,0.00,,,0.00,Weather View 32 v70,2013-05-17 12:44:00,
2013-05-17 08:54:00,54.0,42.9,30.02,WNW,292,2.0,14.0,66,0.00,,,0.00,Weather View 32 v70,2013-05-17 12:54:00,
2013-05-17 08:59:00,54.0,42.1,30.03,West,270,5.0,14.0,64,0.00,,,0.00,Weather View 32 v70,2013-05-17 12:59:00,
2013-05-17 09:09:00,55.0,43.0,30.02,WNW,292,1.0,14.0,64,0.00,,,0.00,Weather View 32 v70,2013-05-17 13:09:00,
2013-05-17 09:14:00,55.0,43.0,30.02,South,180,8.0,14.0,64,0.00,,,0.00,Weather View 32 v70,2013-05-17 13:14:00,
2013-05-17 09:20:00,55.0,42.6,30.02,WSW,248,5.0,15.0,63,0.00,,,0.00,Weather View 32 v70,2013-05-17 13:20:00,
2013-05-17 09:29:00,55.0,42.2,30.02,SSW,202,4.0,15.0,62,0.00,,,0.00,Weather View 32 v70,2013-05-17 13:29:00,
2013-05-17 09:34:00,56.0,43.6,30.02,West,270,3.0,15.0,63,0.00,,,0.00,Weather View 32 v70,2013-05-17 13:34:00,
2013-05-17 09:45:00,55.0,42.2,30.03,SW,225,2.0,17.0,62,0.00,,,0.00,Weather View 32 v70,2013-05-17 13:45:00,
2013-05-17 09:54:00,55.0,42.2,30.03,SW,225,3.0,17.0,62,0.00,,,0.00,Weather View 32 v70,2013-05-17 13:54:00,
2013-05-17 10:00:00,54.0,41.7,30.03,WNW,292,6.0,17.0,63,0.00,,,0.00,Weather View 32 v70,2013-05-17 14:00:00,
2013-05-17 10:04:00,54.0,42.1,30.04,WNW,292,9.0,17.0,64,0.00,,,0.00,Weather View 32 v70,2013-05-17 14:04:00,
2013-05-17 10:14:00,54.0,42.1,30.04,West,270,5.0,17.0,64,0.00,,,0.00,Weather View 32 v70,2013-05-17 14:14:00,
2013-05-17 10:19:00,53.0,41.1,30.04,WNW,292,4.0,18.0,64,0.00,,,0.00,Weather View 32 v70,2013-05-17 14:19:00,
2013-05-17 10:29:00,55.0,42.6,30.04,WSW,248,1.0,18.0,63,0.00,,,0.00,Weather View 32 v70,2013-05-17 14:29:00,
2013-05-17 10:39:00,56.0,42.7,30.04,SE,135,3.0,18.0,61,0.00,,,0.00,Weather View 32 v70,2013-05-17 14:39:00,
2013-05-17 10:44:00,57.0,43.2,30.04,SW,225,3.0,18.0,60,0.00,,,0.00,Weather View 32 v70,2013-05-17 14:44:00,
2013-05-17 10:49:00,57.0,42.8,30.05,WNW,292,5.0,18.0,59,0.00,,,0.00,Weather View 32 v70,2013-05-17 14:49:00,
2013-05-17 10:59:00,57.0,42.3,30.05,WSW,248,8.0,18.0,58,0.00,,,0.00,Weather View 32 v70,2013-05-17 14:59:00,
2013-05-17 11:04:00,57.0,41.4,30.05,South,180,4.0,18.0,56,0.00,,,0.00,Weather View 32 v70,2013-05-17 15:04:00,
2013-05-17 11:14:00,57.0,41.4,30.06,WNW,292,3.0,18.0,56,0.00,,,0.00,Weather View 32 v70,2013-05-17 15:14:00,
2013-05-17 11:19:00,57.0,41.0,30.06,SSE,158,5.0,17.0,55,0.00,,,0.00,Weather View 32 v70,2013-05-17 15:19:00,
2013-05-17 11:25:00,57.0,41.0,30.06,West,270,4.0,17.0,55,0.00,,,0.00,Weather View 32 v70,2013-05-17 15:25:00,
2013-05-17 11:34:00,59.0,42.8,30.05,SSE,158,4.0,17.0,55,0.00,,,0.00,Weather View 32 v70,2013-05-17 15:34:00,
2013-05-17 11:44:00,58.0,41.4,30.06,WNW,292,5.0,17.0,54,0.00,,,0.00,Weather View 32 v70,2013-05-17 15:44:00,
2013-05-17 11:49:00,58.0,40.9,30.06,SW,225,6.0,17.0,53,0.00,,,0.00,Weather View 32 v70,2013-05-17 15:49:00,
2013-05-17 11:59:00,59.0,41.4,30.06,West,270,5.0,17.0,52,0.00,,,0.00,Weather View 32 v70,2013-05-17 15:59:00,
2013-05-17 12:09:00,59.0,41.4,30.06,WSW,248,4.0,15.0,52,0.00,,,0.00,Weather View 32 v70,2013-05-17 16:09:00,
2013-05-17 12:19:00,60.0,42.3,30.06,SSE,158,4.0,15.0,52,0.00,,,0.00,Weather View 32 v70,2013-05-17 16:19:00,
2013-05-17 12:30:00,59.0,41.4,30.06,West,270,6.0,15.0,52,0.00,,,0.00,Weather View 32 v70,2013-05-17 16:30:00,
2013-05-17 12:39:00,60.0,42.8,30.06,WSW,248,3.0,15.0,53,0.00,,,0.00,Weather View 32 v70,2013-05-17 16:39:00,
2013-05-17 12:49:00,60.0,41.3,30.06,SW,225,5.0,16.0,50,0.00,,,0.00,Weather View 32 v70,2013-05-17 16:49:00,
2013-05-17 12:54:00,61.0,41.7,30.07,WNW,292,5.0,16.0,49,0.00,,,0.00,Weather View 32 v70,2013-05-17 16:54:00,
2013-05-17 13:04:00,60.0,40.2,30.07,SW,225,3.0,16.0,48,0.00,,,0.00,Weather View 32 v70,2013-05-17 17:04:00,
2013-05-17 13:14:00,61.0,41.1,30.07,SSE,158,3.0,16.0,48,0.00,,,0.00,Weather View 32 v70,2013-05-17 17:14:00,
2013-05-17 13:19:00,61.0,41.1,30.07,WSW,248,3.0,16.0,48,0.00,,,0.00,Weather View 32 v70,2013-05-17 17:19:00,
2013-05-17 13:29:00,61.0,40.6,30.07,WNW,292,9.0,16.0,47,0.00,,,0.00,Weather View 32 v70,2013-05-17 17:29:00,
2013-05-17 13:40:00,61.0,41.1,30.07,SW,225,7.0,16.0,48,0.00,,,0.00,Weather View 32 v70,2013-05-17 17:40:00,
2013-05-17 13:49:00,62.0,42.0,30.07,WNW,292,5.0,14.0,48,0.00,,,0.00,Weather View 32 v70,2013-05-17 17:49:00,
2013-05-17 13:54:00,62.0,40.9,30.07,West,270,3.0,14.0,46,0.00,,,0.00,Weather View 32 v70,2013-05-17 17:54:00,
2013-05-17 14:00:00,62.0,40.4,30.07,SSW,202,8.0,14.0,45,0.00,,,0.00,Weather View 32 v70,2013-05-17 18:00:00,
2013-05-17 14:09:00,63.0,41.3,30.07,West,270,6.0,14.0,45,0.00,,,0.00,Weather View 32 v70,2013-05-17 18:09:00,
2013-05-17 14:14:00,63.0,40.7,30.08,West,270,5.0,14.0,44,0.00,,,0.00,Weather View 32 v70,2013-05-17 18:14:00,
2013-05-17 14:24:00,63.0,40.7,30.08,SW,225,2.0,14.0,44,0.00,,,0.00,Weather View 32 v70,2013-05-17 18:24:00,
2013-05-17 14:29:00,63.0,40.7,30.09,WSW,248,5.0,14.0,44,0.00,,,0.00,Weather View 32 v70,2013-05-17 18:29:00,
2013-05-17 14:39:00,64.0,41.6,30.09,WNW,292,5.0,13.0,44,0.00,,,0.00,Weather View 32 v70,2013-05-17 18:39:00,
2013-05-17 14:50:00,64.0,40.4,30.09,WSW,248,4.0,13.0,42,0.00,,,0.00,Weather View 32 v70,2013-05-17 18:50:00,
2013-05-17 14:59:00,64.0,40.4,30.09,West,270,5.0,13.0,42,0.00,,,0.00,Weather View 32 v70,2013-05-17 18:59:00,
2013-05-17 15:05:00,65.0,41.3,30.09,SE,135,2.0,13.0,42,0.00,,,0.00,Weather View 32 v70,2013-05-17 19:05:00,
2013-05-17 15:09:00,65.0,40.7,30.09,WNW,292,3.0,13.0,41,0.00,,,0.00,Weather View 32 v70,2013-05-17 19:09:00,
2013-05-17 15:19:00,65.0,39.4,30.09,West,270,3.0,13.0,39,0.00,,,0.00,Weather View 32 v70,2013-05-17 19:19:00,
2013-05-17 15:30:00,65.0,40.0,30.09,West,270,2.0,13.0,40,0.00,,,0.00,Weather View 32 v70,2013-05-17 19:30:00,
2013-05-17 15:39:00,65.0,39.4,30.09,SE,135,5.0,13.0,39,0.00,,,0.00,Weather View 32 v70,2013-05-17 19:39:00,
2013-05-17 15:49:00,66.0,39.6,30.09,SSW,202,2.0,13.0,38,0.00,,,0.00,Weather View 32 v70,2013-05-17 19:49:00,
2013-05-17 15:54:00,66.0,39.6,30.09,SE,135,4.0,13.0,38,0.00,,,0.00,Weather View 32 v70,2013-05-17 19:54:00,
2013-05-17 16:04:00,65.0,38.0,30.09,West,270,1.0,16.0,37,0.00,,,0.00,Weather View 32 v70,2013-05-17 20:04:00,
2013-05-17 16:09:00,66.0,38.2,30.09,WNW,292,5.0,16.0,36,0.00,,,0.00,Weather View 32 v70,2013-05-17 20:09:00,
2013-05-17 16:19:00,66.0,39.6,30.10,South,180,2.0,16.0,38,0.00,,,0.00,Weather View 32 v70,2013-05-17 20:19:00,
2013-05-17 16:29:00,66.0,38.9,30.10,WSW,248,3.0,16.0,37,0.00,,,0.00,Weather View 32 v70,2013-05-17 20:29:00,
2013-05-17 16:34:00,66.0,40.3,30.11,WNW,292,3.0,16.0,39,0.00,,,0.00,Weather View 32 v70,2013-05-17 20:34:00,
2013-05-17 16:40:00,65.0,38.0,30.11,SW,225,5.0,16.0,37,0.00,,,0.00,Weather View 32 v70,2013-05-17 20:40:00,
2013-05-17 16:44:00,65.0,38.7,30.11,WSW,248,1.0,16.0,38,0.00,,,0.00,Weather View 32 v70,2013-05-17 20:44:00,
2013-05-17 16:51:00,66.0,40.3,30.11,South,180,3.0,16.0,39,0.00,,,0.00,Weather View 32 v70,2013-05-17 20:51:00,
2013-05-17 16:59:00,66.0,40.3,30.11,WNW,292,1.0,15.0,39,0.00,,,0.00,Weather View 32 v70,2013-05-17 20:59:00,
2013-05-17 17:09:00,65.0,39.4,30.12,WNW,292,4.0,15.0,39,0.00,,,0.00,Weather View 32 v70,2013-05-17 21:09:00,
2013-05-17 17:15:00,64.0,39.1,30.12,SSE,158,1.0,15.0,40,0.00,,,0.00,Weather View 32 v70,2013-05-17 21:15:00,
2013-05-17 17:24:00,62.0,38.6,30.12,West,270,1.0,11.0,42,0.00,,,0.00,Weather View 32 v70,2013-05-17 21:24:00,
2013-05-17 17:34:00,63.0,40.1,30.12,SE,135,1.0,10.0,43,0.00,,,0.00,Weather View 32 v70,2013-05-17 21:34:00,
2013-05-17 17:40:00,63.0,40.1,30.12,WSW,248,5.0,9.0,43,0.00,,,0.00,Weather View 32 v70,2013-05-17 21:40:00,
2013-05-17 17:44:00,64.0,39.8,30.13,WNW,292,5.0,9.0,41,0.00,,,0.00,Weather View 32 v70,2013-05-17 21:44:00,
2013-05-17 17:52:00,64.0,39.8,30.13,WSW,248,3.0,9.0,41,0.00,,,0.00,Weather View 32 v70,2013-05-17 21:52:00,
2013-05-17 17:59:00,63.0,38.9,30.13,South,180,1.0,9.0,41,0.00,,,0.00,Weather View 32 v70,2013-05-17 21:59:00,
2013-05-17 18:09:00,62.0,38.6,30.13,SW,225,2.0,8.0,42,0.00,,,0.00,Weather View 32 v70,2013-05-17 22:09:00,
2013-05-17 18:19:00,62.0,39.8,30.13,WNW,292,2.0,8.0,44,0.00,,,0.00,Weather View 32 v70,2013-05-17 22:19:00,
2013-05-17 18:24:00,62.0,39.8,30.14,South,180,1.0,8.0,44,0.00,,,0.00,Weather View 32 v70,2013-05-17 22:24:00,
2013-05-17 18:34:00,62.0,39.8,30.14,WNW,292,1.0,8.0,44,0.00,,,0.00,Weather View 32 v70,2013-05-17 22:34:00,
2013-05-17 18:44:00,62.0,39.2,30.15,South,180,2.0,8.0,43,0.00,,,0.00,Weather View 32 v70,2013-05-17 22:44:00,
2013-05-17 18:50:00,62.0,39.2,30.15,South,180,1.0,7.0,43,0.00,,,0.00,Weather View 32 v70,2013-05-17 22:50:00,
2013-05-17 18:59:00,61.0,38.3,30.15,West,270,0.0,7.0,43,0.00,,,0.00,Weather View 32 v70,2013-05-17 22:59:00,
2013-05-17 19:05:00,61.0,38.9,30.15,SSE,158,1.0,7.0,44,0.00,,,0.00,Weather View 32 v70,2013-05-17 23:05:00,
2013-05-17 19:14:00,60.0,38.5,30.16,WNW,292,1.0,6.0,45,0.00,,,0.00,Weather View 32 v70,2013-05-17 23:14:00,
2013-05-17 19:19:00,60.0,39.1,30.16,West,270,1.0,6.0,46,0.00,,,0.00,Weather View 32 v70,2013-05-17 23:19:00,
2013-05-17 19:30:00,59.0,39.3,30.16,SW,225,0.0,6.0,48,0.00,,,0.00,Weather View 32 v70,2013-05-17 23:30:00,
2013-05-17 19:39:00,58.0,39.9,30.17,West,270,1.0,6.0,51,0.00,,,0.00,Weather View 32 v70,2013-05-17 23:39:00,
2013-05-17 19:49:00,57.0,40.0,30.17,WSW,248,0.0,4.0,53,0.00,,,0.00,Weather View 32 v70,2013-05-17 23:49:00,
2013-05-17 19:54:00,57.0,41.0,30.17,West,270,0.0,4.0,55,0.00,,,0.00,Weather View 32 v70,2013-05-17 23:54:00,
2013-05-17 19:59:00,56.0,40.5,30.17,WSW,248,1.0,4.0,56,0.00,,,0.00,Weather View 32 v70,2013-05-17 23:59:00,
2013-05-17 20:10:00,56.0,41.4,30.17,SW,225,0.0,4.0,58,0.00,,,0.00,Weather View 32 v70,2013-05-18 00:10:00,
2013-05-17 20:19:00,55.0,41.8,30.18,WNW,292,0.0,4.0,61,0.00,,,0.00,Weather View 32 v70,2013-05-18 00:19:00,
2013-05-17 20:24:00,55.0,41.8,30.18,West,270,1.0,3.0,61,0.00,,,0.00,Weather View 32 v70,2013-05-18 00:24:00,
2013-05-17 20:35:00,54.0,41.7,30.18,SSW,202,0.0,3.0,63,0.00,,,0.00,Weather View 32 v70,2013-05-18 00:35:00,
2013-05-17 20:40:00,54.0,41.2,30.19,West,270,1.0,3.0,62,0.00,,,0.00,Weather View 32 v70,2013-05-18 00:40:00,
2013-05-17 20:49:00,54.0,41.7,30.19,South,180,1.0,3.0,63,0.00,,,0.00,Weather View 32 v70,2013-05-18 00:49:00,
2013-05-17 20:59:00,53.0,41.1,30.19,WNW,292,1.0,3.0,64,0.00,,,0.00,Weather View 32 v70,2013-05-18 00:59:00,
2013-05-17 21:09:00,52.0,41.0,30.20,West,270,0.0,3.0,66,0.00,,,0.00,Weather View 32 v70,2013-05-18 01:09:00,
2013-05-17 21:14:00,52.0,41.0,30.20,South,180,0.0,3.0,66,0.00,,,0.00,Weather View 32 v70,2013-05-18 01:14:00,
2013-05-17 21:19:00,52.0,41.7,30.20,SW,225,0.0,3.0,68,0.00,,,0.00,Weather View 32 v70,2013-05-18 01:19:00,
2013-05-17 21:29:00,51.0,41.5,30.21,West,270,0.0,2.0,70,0.00,,,0.00,Weather View 32 v70,2013-05-18 01:29:00,
2013-05-17 21:39:00,50.0,40.6,30.22,West,270,0.0,1.0,70,0.00,,,0.00,Weather View 32 v70,2013-05-18 01:39:00,
2013-05-17 21:44:00,50.0,41.0,30.22,West,270,0.0,1.0,71,0.00,,,0.00,Weather View 32 v70,2013-05-18 01:44:00,
2013-05-17 21:49:00,50.0,41.3,30.22,WNW,292,0.0,1.0,72,0.00,,,0.00,Weather View 32 v70,2013-05-18 01:49:00,
2013-05-17 21:59:00,49.0,40.7,30.22,WSW,248,0.0,1.0,73,0.00,,,0.00,Weather View 32 v70,2013-05-18 01:59:00,
2013-05-17 22:09:00,49.0,41.4,30.22,WSW,248,0.0,1.0,75,0.00,,,0.00,Weather View 32 v70,2013-05-18 02:09:00,
2013-05-17 22:19:00,49.0,42.8,30.23,WNW,292,1.0,3.0,79,0.00,,,0.00,Weather View 32 v70,2013-05-18 02:19:00,
2013-05-17 22:24:00,49.0,42.8,30.23,West,270,0.0,3.0,79,0.00,,,0.00,Weather View 32 v70,2013-05-18 02:24:00,
2013-05-17 22:34:00,49.0,42.8,30.23,SE,135,0.0,3.0,79,0.00,,,0.00,Weather View 32 v70,2013-05-18 02:34:00,
2013-05-17 22:39:00,49.0,42.4,30.23,SW,225,0.0,3.0,78,0.00,,,0.00,Weather View 32 v70,2013-05-18 02:39:00,
2013-05-17 22:49:00,49.0,43.7,30.23,WNW,292,0.0,3.0,82,0.00,,,0.00,Weather View 32 v70,2013-05-18 02:49:00,
2013-05-17 22:55:00,49.0,43.7,30.22,SW,225,0.0,3.0,82,0.00,,,0.00,Weather View 32 v70,2013-05-18 02:55:00,
2013-05-17 23:04:00,49.0,44.1,30.23,WNW,292,0.0,3.0,83,0.00,,,0.00,Weather View 32 v70,2013-05-18 03:04:00,
2013-05-17 23:15:00,49.0,44.1,30.23,West,270,0.0,3.0,83,0.00,,,0.00,Weather View 32 v70,2013-05-18 03:15:00,
2013-05-17 23:24:00,48.0,43.1,30.23,WSW,248,0.0,3.0,83,0.00,,,0.00,Weather View 32 v70,2013-05-18 03:24:00,
2013-05-17 23:29:00,48.0,43.1,30.23,WNW,292,0.0,3.0,83,0.00,,,0.00,Weather View 32 v70,2013-05-18 03:29:00,
2013-05-17 23:41:00,48.0,43.1,30.24,South,180,0.0,3.0,83,0.00,,,0.00,Weather View 32 v70,2013-05-18 03:41:00,
2013-05-17 23:49:00,48.0,43.4,30.24,West,270,0.0,2.0,84,0.00,,,0.00,Weather View 32 v70,2013-05-18 03:49:00,
2013-05-17 23:59:00,48.0,43.4,30.24,WNW,292,0.0,1.0,84,0.00,,,0.00,Weather View 32 v70,2013-05-18 03:59:00,